Date,TemperatureHighF,TemperatureAvgF,TemperatureLowF,DewpointHighF,DewpointAvgF,DewpointLowF,HumidityHigh,HumidityAvg,HumidityLow,PressureMaxIn,PressureMinIn,WindSpeedMaxMPH,WindSpeedAvgMPH,GustSpeedMaxMPH,PrecipitationSumIn
2013-2-1,71.5,49.3,36.4,35.7,31.2,22.4,92,57,17,30.39,30.26,4,1,10,0.00
2013-2-2,74.2,47.0,30.5,45.7,34.7,28.9,96,70,22,30.34,30.17,5,1,10,0.00
2013-2-3,72.9,50.6,29.4,51.4,38.9,27.6,96,69,31,30.22,30.08,3,1,10,0.00
2013-2-4,72.3,48.3,28.9,49.4,34.7,27.4,97,67,26,30.16,30.06,4,1,13,0.00
2013-2-5,79.3,55.8,30.5,52.1,43.2,28.7,96,68,33,30.13,30.02,3,0,9,0.00
2013-2-6,76.9,64.4,51.1,62.4,56.5,47.8,93,77,54,30.14,30.05,3,1,9,0.00
2013-2-7,81.9,70.0,58.3,64.7,61.5,56.3,96,76,51,30.10,29.86,10,3,16,0.00
2013-2-8,82.6,67.7,49.9,64.7,58.1,46.5,94,74,41,30.11,29.89,3,1,9,0.00
2013-2-9,74.6,57.8,43.3,55.4,50.1,42.2,98,78,49,30.23,30.09,7,3,13,0.00
2013-2-10,79.9,64.7,47.1,58.6,54.5,44.7,96,73,45,30.29,30.17,9,4,20,0.00
2013-2-11,84.3,68.7,56.1,63.7,59.0,53.9,96,74,44,30.23,30.08,8,2,15,0.00
2013-2-12,86.3,70.7,56.1,68.5,62.4,54.3,98,78,44,30.11,29.94,6,2,13,0.00
2013-2-13,84.5,70.6,61.0,69.5,66.1,58.9,95,87,58,30.00,29.85,9,3,21,0.82
2013-2-14,66.6,60.0,54.6,61.2,57.2,53.1,96,91,69,30.09,29.94,4,1,8,0.39
2013-2-15,72.9,56.4,47.1,56.1,50.4,44.6,97,82,47,30.11,29.98,4,1,9,0.00
2013-2-16,68.3,52.9,39.0,51.3,41.6,24.3,97,70,33,30.17,29.94,6,2,12,0.00
2013-2-17,54.7,40.1,26.3,26.0,19.5,9.7,84,49,17,30.38,30.17,5,1,18,0.00
2013-2-18,68.8,47.6,22.0,45.9,34.1,20.0,96,64,34,30.40,30.24,8,2,17,0.00
2013-2-19,80.0,60.2,39.1,56.7,49.7,36.9,97,73,41,30.25,30.08,6,1,14,0.00
2013-2-20,75.0,62.1,49.5,59.2,53.6,46.4,96,76,50,30.17,30.04,4,1,9,0.00
2013-2-21,83.8,65.4,47.5,63.2,56.2,45.3,96,75,44,30.14,30.00,5,1,13,0.00
2013-2-22,89.0,72.9,58.9,68.2,63.4,56.9,97,75,44,30.10,29.99,8,2,15,0.00
2013-2-23,87.4,74.5,64.4,68.9,66.0,61.8,96,77,46,30.03,29.89,7,2,17,0.00
2013-2-24,78.7,70.1,64.3,70.9,67.2,62.4,97,91,75,29.98,29.89,3,1,8,0.01
2013-2-25,86.8,71.9,60.3,71.3,64.5,59.4,98,80,48,29.94,29.78,6,1,11,0.00
2013-2-26,78.8,68.9,62.0,70.6,64.5,59.4,97,87,53,29.88,29.74,6,2,15,0.78
2013-2-27,78.4,63.5,50.6,60.4,53.9,47.1,95,74,38,30.00,29.88,3,1,11,0.00
2013-2-28,75.3,57.6,41.6,55.5,47.0,40.1,97,72,35,30.02,29.91,4,1,11,0.00